Location: Mt. Graham
(32.7020°N, 109.8880°W)
Time: 13:18:19
(UTC-07:00)

Amateur Radio Satellites - All Passes

Search period start: 22 November 2017 12:48
Search period end: 23 November 2017 12:48
Location: Mt. Graham, 32.7020°N, 109.8880°W

Satellite Date Start Highest point End Downlink Frequencies (MHz)
Time Altitude Azimuth
QB50P2 22 Nov 12:49:43 12:50:50 11° 267° (W) 12:51:56 145.880/145.840
Gurwin Techsat 1B 22 Nov 12:50:44 12:55:35 38° 71° (ENE) 13:00:27 435.225
VELOX 1 22 Nov 12:51:10 12:55:33 59° 101° (E) 12:59:53 145.980
50 SAT 22 Nov 13:09:47 13:11:48 16° 96° (E) 13:13:47 437.505
FALCONSAT 3 22 Nov 13:24:21 13:28:01 78° 198° (SSW) 13:31:41 435.103
DX 1 22 Nov 13:32:20 13:36:18 33° 99° (E) 13:40:13 434.975-435.025
BEESAT 2 22 Nov 13:36:14 13:39:17 21° 250° (WSW) 13:42:18 435.950
SPROUT 22 Nov 13:38:18 13:41:29 21° 290° (WNW) 13:44:39 437.525
AO-85 22 Nov 13:40:31 13:45:19 66° 244° (WSW) 13:50:25 145.980
M-CUBED/EXP-1 PRIME 22 Nov 13:47:45 13:50:59 37° 68° (ENE) 13:54:27 437.505
JUGNU 22 Nov 13:47:48 13:51:27 17° 168° (SSE) 13:55:06 437.505
Oscar 19 22 Nov 13:53:42 13:58:14 33° 262° (W) 14:02:49 437.125/150
AO-7 22 Nov 13:59:38 14:06:53 35° 63° (ENE) 14:14:08 .
NO-84 22 Nov 14:07:49 14:11:13 69° 129° (SE) 14:14:57 435.350 FM
UKube-1 22 Nov 14:11:00 14:15:16 60° 101° (ESE) 14:19:30 .
ITAMSAT 1 22 Nov 14:11:35 14:14:53 17° 66° (ENE) 14:18:11 435.822/435.867
O/OREOS (USA 219) 22 Nov 14:18:17 14:21:15 17° 299° (WNW) 14:24:14 437.305
VELOX 1 22 Nov 14:30:45 14:31:24 10° 295° (WNW) 14:32:03 145.980
Gurwin Techsat 1B 22 Nov 14:31:38 14:35:34 21° 265° (W) 14:39:31 435.225
50 SAT 22 Nov 14:41:37 14:43:43 17° 289° (WNW) 14:45:50 437.505
FALCONSAT 3 22 Nov 15:04:07 15:06:48 19° 211° (SSW) 15:09:29 435.103
DX 1 22 Nov 15:09:22 15:12:09 17° 292° (WNW) 15:14:55 434.975-435.025
JUGNU 22 Nov 15:35:21 15:39:49 23° 178° (S) 15:44:17 437.505
SRMSAT 22 Nov 15:37:07 15:38:36 11° 163° (SSE) 15:40:05 437.500
BEESAT 22 Nov 15:40:38 15:45:22 75° 102° (ESE) 15:50:05 436.000
YUBILEINY 22 Nov 15:41:55 15:48:55 25° 72° (ENE) 15:55:50 435.215
NO-84 22 Nov 15:47:12 15:49:00 13° 327° (NNW) 15:50:51 435.350 FM
ITAMSAT 1 22 Nov 15:48:53 15:53:53 48° 260° (W) 15:58:56 435.822/435.867
MOZHAYETS 4 22 Nov 15:49:15 15:53:44 60° 285° (WNW) 15:58:13
DOVE 4 22 Nov 15:49:18 15:53:19 25° 69° (ENE) 15:57:30 437.250
ITUPSAT 1 22 Nov 15:51:24 15:56:09 85° 284° (WNW) 16:00:53 437.325
AO-7 22 Nov 15:51:37 15:59:22 44° 259° (W) 16:07:11 .
CUBESAT XI-V 22 Nov 16:04:58 16:09:22 40° 99° (E) 16:13:45 437.345
XW-2C 22 Nov 16:51:07 16:53:19 15° 70° (ENE) 16:55:32 145.795 - 145.815
LilacSat-2 22 Nov 16:54:41 16:57:19 19° 71° (ENE) 16:59:58 437.200
XW-2F 22 Nov 16:59:52 17:02:27 18° 71° (ENE) 17:05:02 145.980 - 146.000
SRMSAT 22 Nov 17:22:55 17:27:05 20° 171° (S) 17:31:15 437.500
JUGNU 22 Nov 17:24:06 17:28:14 20° 188° (S) 17:32:20 437.505
KAITUO 1B 22 Nov 17:24:12 17:27:23 28° 73° (ENE) 17:30:34 145.475/437.950
DOVE 4 22 Nov 17:26:23 17:30:45 31° 264° (W) 17:35:19 437.250
RS-15 22 Nov 17:26:49 17:37:58 44° 107° (ESE) 17:49:09 29.354- 29.394
KKS-1 22 Nov 17:29:21 17:33:47 74° 100° (E) 17:38:12 437.445
CUTE 1.7 + AOD 2 22 Nov 17:32:16 17:33:33 11° 67° (ENE) 17:34:49 437.475
CUTE-I 22 Nov 17:32:19 17:37:27 50° 73° (ENE) 17:42:37 437.470
YUBILEINY 22 Nov 17:37:30 17:46:06 58° 269° (W) 17:54:39 435.215
XW-2D 22 Nov 17:42:51 17:46:33 86° 83° (E) 17:50:17 145.860 - 145.880
CUBESAT XI-V 22 Nov 17:43:27 17:46:21 17° 292° (WNW) 17:49:16 437.345
STARS 22 Nov 17:49:01 17:53:10 43° 99° (E) 17:57:19 437.465
XW-2B 22 Nov 17:57:48 18:01:27 60° 260° (W) 18:05:08 145.730 - 145.750
SEEDS 22 Nov 17:58:33 18:00:40 14° 68° (ENE) 18:02:47 437.485
HO-68 22 Nov 18:00:11 18:06:53 44° 69° (ENE) 18:13:36 435.675
NUDT-PHONESAT 22 Nov 18:05:23 18:08:59 73° 259° (W) 18:12:37 437.300
XW-2C 22 Nov 18:24:09 18:27:14 25° 263° (W) 18:30:22 145.795 - 145.815
LilacSat-2 22 Nov 18:28:35 18:31:25 21° 264° (W) 18:34:17 437.200
XW-2F 22 Nov 18:33:34 18:36:22 20° 264° (W) 18:39:12 145.980 - 146.000
CUBEBUG 2 22 Nov 18:42:27 18:46:52 49° 75° (ENE) 18:51:11 437.445
KAITUO 1B 22 Nov 18:59:44 19:01:22 12° 266° (W) 19:02:59 145.475/437.950
XW-2A 22 Nov 19:01:20 19:04:19 32° 75° (ENE) 19:07:18 145.665 - 145.685
CUTE 1.7 + AOD 2 22 Nov 19:04:53 19:08:53 46° 261° (W) 19:12:56 437.475
nSIGHT-1 22 Nov 19:06:34 19:09:24 29° 130° (SE) 19:12:14 .
SRMSAT 22 Nov 19:11:06 19:15:38 23° 182° (S) 19:20:13 437.500
CUTE-I 22 Nov 19:14:28 19:17:41 16° 266° (W) 19:20:55 437.470
JUGNU 22 Nov 19:14:55 19:16:32 11° 197° (SSW) 19:18:11 437.505
STRAND 1 22 Nov 19:17:36 19:22:21 39° 99° (E) 19:27:04 437.568
ZACube-1 22 Nov 19:22:27 19:26:26 37° 74° (ENE) 19:30:20 437.345
FO-29 22 Nov 19:24:01 19:28:03 15° 88° (E) 19:31:56 435.910
STARS 22 Nov 19:27:02 19:29:04 13° 293° (WNW) 19:31:07 437.465
SEEDS 22 Nov 19:32:08 19:35:58 36° 262° (W) 19:39:50 437.485
AAUSAT CUBESAT 2 22 Nov 19:33:10 19:37:15 86° 80° (E) 19:41:23 437.432
UWE-3 22 Nov 19:35:36 19:40:04 71° 259° (W) 19:44:24 435.000/436.395/437.385
RS-15 22 Nov 19:38:20 19:50:10 52° 306° (NW) 20:02:04 29.354- 29.394
HO-68 22 Nov 19:48:36 19:54:38 29° 263° (W) 20:00:43 435.675
ISS 22 Nov 19:55:47 19:59:02 82° 315° (NW) 20:02:17 437.550
AO-73 22 Nov 20:12:04 20:16:19 59° 260° (W) 20:20:29 145.935
CUBEBUG 2 22 Nov 20:21:55 20:23:37 12° 267° (W) 20:25:19 437.445
Oscar 11 22 Nov 20:26:24 20:30:37 62° 259° (W) 20:34:52 .
Max Valier Satellite 22 Nov 20:32:47 20:34:49 15° 70° (ENE) 20:36:52 145.860
nSIGHT-1 22 Nov 20:43:14 20:45:38 19° 324° (NW) 20:48:03 .
NO-84 22 Nov 20:46:20 20:47:07 10° 31° (NNE) 20:47:55 435.350 FM
SO-50 22 Nov 20:54:16 20:58:34 51° 115° (ESE) 21:02:54 436.795
STRAND 1 22 Nov 20:57:37 21:01:11 20° 293° (WNW) 21:04:45 437.568
SRMSAT 22 Nov 21:00:23 21:04:12 18° 191° (SSW) 21:08:01 437.500
ZACube-1 22 Nov 21:00:31 21:02:45 14° 266° (W) 21:05:01 437.345
FO-29 22 Nov 21:06:03 21:13:52 83° 285° (WNW) 21:21:00 435.910
UNISAT 6 22 Nov 21:20:40 21:23:58 22° 96° (E) 21:27:13 437.425
DELFI C3 22 Nov 21:21:57 21:25:52 72° 259° (W) 21:29:50 145.870
TIGRISAT 22 Nov 21:24:31 21:27:47 22° 96° (E) 21:31:02 435.000
PRISM 22 Nov 21:47:17 21:49:09 13° 94° (E) 21:51:01 437.425
ESTCUBE 1 22 Nov 21:57:50 21:59:44 13° 67° (ENE) 22:01:37 437.505/2401.250
EO-88 22 Nov 21:58:47 22:02:14 46° 260° (W) 22:05:43 145.990 - 145.960
RS-15 22 Nov 21:59:53 22:06:33 16° 334° (NNW) 22:13:10 29.354- 29.394
Max Valier Satellite 22 Nov 22:05:20 22:08:23 25° 263° (W) 22:11:26 145.860
LO-87 22 Nov 22:17:35 22:20:34 25° 73° (ENE) 22:23:33 145.935 - 145.965
NO-84 22 Nov 22:20:58 22:25:12 63° 47° (NE) 22:29:21 435.350 FM
SO-50 22 Nov 22:36:51 22:39:18 14° 311° (NW) 22:41:46 436.795
AIST 2D 22 Nov 22:47:41 22:50:16 19° 96° (E) 22:52:50 435.315
PCSat 22 Nov 22:51:00 22:55:13 24° 107° (ESE) 22:59:27 145.827
O/OREOS (USA 219) 22 Nov 22:52:00 22:56:07 34° 66° (ENE) 23:00:12 437.305
SPROUT 22 Nov 22:53:17 22:54:30 11° 67° (ENE) 22:55:42 437.525
FO-29 22 Nov 22:53:50 22:57:33 14° 302° (WNW) 23:01:11 435.910
UNISAT 6 22 Nov 22:57:10 23:00:33 23° 289° (WNW) 23:03:54 437.425
TIGRISAT 22 Nov 23:01:00 23:04:21 23° 289° (WNW) 23:07:42 435.000
QB50P2 22 Nov 23:03:06 23:03:31 10° 93° (E) 23:03:56 145.880/145.840
PRISM 22 Nov 23:20:40 23:24:31 37° 287° (WNW) 23:28:19 437.425
ESTCUBE 1 22 Nov 23:31:45 23:36:02 48° 260° (W) 23:40:22 437.505/2401.250
VELOX 1 22 Nov 23:44:01 23:47:50 29° 71° (ENE) 23:51:39 145.980
DUCHIFAT 1 22 Nov 23:46:45 23:50:12 25° 97° (E) 23:53:38 145.980
LO-87 22 Nov 23:52:01 23:53:55 14° 265° (W) 23:55:50 145.935 - 145.965
EO-79 22 Nov 23:56:06 00:00:07 45° 100° (E) 00:04:06 145.935-145.965
NANOSAT C BR1 22 Nov 23:58:03 00:02:00 41° 99° (E) 00:05:55 145.865
NO-84 23 Nov 00:00:22 00:02:04 12° 241° (WSW) 00:03:46 435.350 FM
POLYITAN 1 23 Nov 00:11:51 00:16:01 74° 102° (ESE) 00:20:10 437.675
AIST 2D 23 Nov 00:20:52 00:23:15 17° 288° (WNW) 00:25:39 435.315
RS-15 23 Nov 00:23:37 00:27:06 11° 13° (NNE) 00:30:33 29.354- 29.394
DX 1 23 Nov 00:24:16 00:27:08 17° 68° (ENE) 00:30:00 434.975-435.025
SPROUT 23 Nov 00:25:44 00:29:53 50° 260° (W) 00:34:02 437.525
BUGSAT 1 23 Nov 00:32:01 00:34:46 18° 95° (E) 00:37:31 437.445
O/OREOS (USA 219) 23 Nov 00:32:22 00:35:10 16° 260° (W) 00:37:58 437.305
Oscar 19 23 Nov 00:33:11 00:34:29 11° 92° (E) 00:35:48 437.125/150
PCSat 23 Nov 00:33:24 00:38:21 36° 301° (WNW) 00:43:20 145.827
QB50P2 23 Nov 00:35:29 00:39:30 47° 285° (WNW) 00:43:30 145.880/145.840
UKube-1 23 Nov 01:01:10 01:04:49 28° 71° (ENE) 01:08:29 .
50 SAT 23 Nov 01:02:51 01:05:58 53° 76° (ENE) 01:09:07 437.505
Gurwin Techsat 1B 23 Nov 01:12:01 01:16:02 22° 95° (E) 01:20:00 435.225
VELOX 1 23 Nov 01:21:02 01:24:13 19° 265° (W) 01:27:25 145.980
DUCHIFAT 1 23 Nov 01:22:40 01:25:39 19° 290° (WNW) 01:28:38 145.980
EO-79 23 Nov 01:34:03 01:35:24 11° 293° (WNW) 01:36:45 145.935-145.965
NANOSAT C BR1 23 Nov 01:35:34 01:37:16 12° 293° (WNW) 01:39:00 145.865
BEESAT 2 23 Nov 01:47:01 01:48:24 12° 107° (ESE) 01:49:47 435.950
DX 1 23 Nov 01:59:06 02:03:00 32° 262° (W) 02:06:56 434.975-435.025
BEESAT 3 23 Nov 02:05:08 02:09:05 89° 298° (WNW) 02:13:04 437.485
BUGSAT 1 23 Nov 02:06:47 02:10:03 25° 289° (WNW) 02:13:18 437.445
Oscar 19 23 Nov 02:09:02 02:14:09 66° 285° (WNW) 02:19:16 437.125/150
AO-7 23 Nov 02:09:12 02:12:16 12° 92° (E) 02:15:19 .
ISS 23 Nov 02:28:02 02:29:59 15° 33° (NNE) 02:31:58 437.550
RS-15 23 Nov 02:34:35 02:45:01 34° 46° (NE) 02:54:55 29.354- 29.394
UKube-1 23 Nov 02:37:41 02:40:46 19° 264° (W) 02:43:53 .
BEESAT 23 Nov 02:42:21 02:46:57 51° 74° (ENE) 02:51:33 436.000
MOZHAYETS 4 23 Nov 02:46:09 02:50:41 75° 77° (ENE) 02:55:14
Gurwin Techsat 1B 23 Nov 02:51:09 02:55:59 37° 289° (WNW) 03:00:49 435.225
ITUPSAT 1 23 Nov 02:53:21 02:58:04 67° 75° (ENE) 03:02:48 437.325
M-CUBED/EXP-1 PRIME 23 Nov 03:03:07 03:07:43 68° 106° (ESE) 03:12:18 437.505
CUBESAT XI-V 23 Nov 03:04:18 03:07:53 23° 70° (ENE) 03:11:30 437.345
nSIGHT-1 23 Nov 03:12:35 03:15:41 50° 42° (NE) 03:18:45 .
BEESAT 2 23 Nov 03:21:52 03:25:39 42° 301° (WNW) 03:29:30 435.950
AO-85 23 Nov 03:51:13 03:55:00 61° 299° (WNW) 03:58:56 145.980
AO-7 23 Nov 03:57:29 04:05:53 83° 106° (ESE) 04:14:15 .
ISS 23 Nov 04:03:31 04:06:39 46° 228° (SW) 04:09:45 437.550
ITAMSAT 1 23 Nov 04:06:02 04:11:14 87° 101° (E) 04:16:24 435.822/435.867
KKS-1 23 Nov 04:22:48 04:26:55 37° 72° (ENE) 04:31:03 437.445
BEESAT 23 Nov 04:22:53 04:24:55 13° 267° (W) 04:26:58 436.000
YUBILEINY 23 Nov 04:37:00 04:44:32 34° 86° (E) 04:52:05 435.215
M-CUBED/EXP-1 PRIME 23 Nov 04:40:08 04:41:29 11° 299° (WNW) 04:42:50 437.505
CUBESAT XI-V 23 Nov 04:41:16 04:45:05 26° 264° (W) 04:48:55 437.345
STARS 23 Nov 04:41:31 04:44:58 23° 70° (ENE) 04:48:25 437.465
RS-15 23 Nov 04:46:42 04:58:08 65° 248° (WSW) 05:09:00 29.354- 29.394
XW-2D 23 Nov 05:21:21 05:22:53 12° 94° (E) 05:24:26 145.860 - 145.880
DOVE 4 23 Nov 05:29:22 05:34:26 75° 284° (WNW) 05:39:11 437.250
SO-50 23 Nov 05:30:36 05:33:26 16° 50° (NE) 05:36:18 436.795
XW-2B 23 Nov 05:35:15 05:37:54 18° 95° (E) 05:40:33 145.730 - 145.750
NUDT-PHONESAT 23 Nov 05:41:00 05:42:55 14° 94° (E) 05:44:51 437.300
AO-7 23 Nov 05:52:18 05:57:37 19° 303° (WNW) 06:02:57 .
CUTE-I 23 Nov 05:54:17 05:58:52 29° 97° (E) 06:03:25 437.470
XW-2C 23 Nov 06:00:10 06:03:46 40° 99° (E) 06:07:22 145.795 - 145.815
KKS-1 23 Nov 06:00:57 06:03:32 15° 265° (W) 06:06:09 437.445
LilacSat-2 23 Nov 06:04:53 06:08:37 52° 100° (E) 06:12:22 437.200
XW-2F 23 Nov 06:08:40 06:12:20 49° 99° (E) 06:16:01 145.980 - 146.000
STARS 23 Nov 06:17:29 06:21:07 25° 263° (W) 06:24:46 437.465
STRAND 1 23 Nov 06:29:02 06:33:40 36° 71° (ENE) 06:38:20 437.568
KAITUO 1B 23 Nov 06:32:30 06:36:16 81° 99° (E) 06:40:02 145.475/437.950
YUBILEINY 23 Nov 06:32:49 06:40:59 44° 282° (WNW) 06:49:16 435.215
CUBEBUG 2 23 Nov 06:39:27 06:41:19 13° 93° (E) 06:43:12 437.445
XW-2D 23 Nov 06:53:41 06:57:06 32° 286° (WNW) 07:00:31 145.860 - 145.880
CUTE 1.7 + AOD 2 23 Nov 06:53:55 06:57:55 39° 98° (E) 07:01:54 437.475
XW-2B 23 Nov 07:08:58 07:11:58 22° 288° (WNW) 07:14:57 145.730 - 145.750
SO-50 23 Nov 07:09:38 07:14:09 51° 245° (WSW) 07:18:44 436.795
FO-29 23 Nov 07:13:09 07:18:41 29° 65° (ENE) 07:24:43 435.910
NUDT-PHONESAT 23 Nov 07:13:35 07:16:45 27° 287° (WNW) 07:19:55 437.300
HO-68 23 Nov 07:19:46 07:26:56 71° 104° (ESE) 07:34:02 435.675
SEEDS 23 Nov 07:19:47 07:23:53 47° 99° (E) 07:27:57 437.485
AAUSAT CUBESAT 2 23 Nov 07:20:26 07:23:21 18° 95° (E) 07:26:15 437.432
UWE-3 23 Nov 07:29:52 07:33:29 29° 97° (E) 07:37:07 435.000/436.395/437.385
CUTE-I 23 Nov 07:34:16 07:38:46 28° 291° (WNW) 07:43:16 437.470
XW-2C 23 Nov 07:36:48 07:37:31 10° 292° (WNW) 07:38:13 145.795 - 145.815
FALCONSAT 3 23 Nov 07:53:21 07:56:36 30° 153° (SSE) 07:59:51 435.103
XW-2A 23 Nov 07:59:00 08:02:21 71° 101° (E) 08:05:42 145.665 - 145.685
AO-73 23 Nov 08:04:20 08:08:05 33° 98° (E) 08:11:53 145.935
STRAND 1 23 Nov 08:09:02 08:12:52 21° 265° (W) 08:16:43 437.568
CUBEBUG 2 23 Nov 08:14:16 08:18:02 36° 286° (WNW) 08:21:49 437.445
UNISAT 6 23 Nov 08:16:27 08:18:24 13° 67° (ENE) 08:20:20 437.425
Oscar 11 23 Nov 08:18:07 08:22:00 32° 98° (E) 08:25:52 .
TIGRISAT 23 Nov 08:20:09 08:22:05 13° 67° (ENE) 08:24:01 435.000
CUTE 1.7 + AOD 2 23 Nov 08:31:09 08:33:20 14° 292° (WNW) 08:35:32 437.475
ZACube-1 23 Nov 08:50:42 08:54:43 51° 285° (WNW) 08:58:47 437.345
AAUSAT CUBESAT 2 23 Nov 08:55:13 08:58:44 27° 288° (WNW) 09:02:14 437.432
FO-29 23 Nov 08:57:09 09:03:17 45° 263° (W) 09:10:12 435.910
SEEDS 23 Nov 08:57:41 08:59:04 11° 293° (WNW) 09:00:28 437.485
DELFI C3 23 Nov 09:03:52 09:06:43 19° 95° (E) 09:09:34 145.870
UWE-3 23 Nov 09:07:04 09:09:40 17° 290° (WNW) 09:12:18 435.000/436.395/437.385
HO-68 23 Nov 09:09:15 09:13:53 19° 299° (WNW) 09:18:32 435.675
PCSat 23 Nov 09:25:08 09:30:32 68° 64° (ENE) 09:35:53 145.827
FALCONSAT 3 23 Nov 09:31:51 09:35:31 78° 347° (NNW) 09:39:12 435.103
EO-88 23 Nov 09:32:09 09:34:44 18° 96° (E) 09:37:18 145.990 - 145.960
Max Valier Satellite 23 Nov 09:38:48 09:42:09 34° 98° (E) 09:45:31 145.860
AO-73 23 Nov 09:41:39 09:44:00 15° 291° (WNW) 09:46:24 145.935
UNISAT 6 23 Nov 09:50:14 09:54:39 49° 260° (W) 09:59:01 437.425
TIGRISAT 23 Nov 09:53:54 09:58:19 49° 260° (W) 10:02:40 435.000
Oscar 11 23 Nov 09:55:03 09:57:50 17° 291° (WNW) 10:00:37 .
PRISM 23 Nov 10:04:35 10:08:39 77° 78° (ENE) 10:12:48 437.425
BEESAT 3 23 Nov 10:27:22 10:29:15 13° 51° (NE) 10:31:07 437.485
DUCHIFAT 1 23 Nov 10:36:13 10:37:23 11° 67° (ENE) 10:38:34 145.980
DELFI C3 23 Nov 10:38:11 10:41:22 23° 288° (WNW) 10:44:31 145.870
EO-79 23 Nov 10:44:40 10:47:42 19° 70° (ENE) 10:50:44 145.935-145.965
NANOSAT C BR1 23 Nov 10:46:26 10:49:16 18° 69° (ENE) 10:52:06 145.865
AIST 2D 23 Nov 10:49:10 10:52:35 75° 78° (ENE) 10:56:02 435.315
POLYITAN 1 23 Nov 10:59:59 11:03:38 29° 72° (ENE) 11:07:18 437.675
EO-88 23 Nov 11:05:32 11:08:13 20° 288° (WNW) 11:10:54 145.990 - 145.960
FALCONSAT 3 23 Nov 11:11:11 11:14:48 53° 2° (N) 11:18:24 435.103
PCSat 23 Nov 11:11:21 11:13:15 12° 257° (WSW) 11:15:09 145.827
Max Valier Satellite 23 Nov 11:14:36 11:15:36 11° 291° (WNW) 11:16:35 145.860
LO-87 23 Nov 11:21:06 11:24:35 59° 101° (E) 11:28:01 145.935 - 145.965
QB50P2 23 Nov 11:22:53 11:27:05 66° 76° (ENE) 11:31:17 145.880/145.840
ESTCUBE 1 23 Nov 11:28:22 11:32:44 48° 100° (E) 11:37:06 437.505/2401.250
BEESAT 2 23 Nov 11:43:41 11:47:01 25° 55° (NE) 11:50:18 435.950
Oscar 19 23 Nov 11:46:23 11:47:41 11° 64° (ENE) 11:49:01 437.125/150
BEESAT 3 23 Nov 12:03:18 12:06:58 41° 246° (WSW) 12:10:35 437.485
DUCHIFAT 1 23 Nov 12:08:31 12:12:34 48° 260° (W) 12:16:38 145.980
SPROUT 23 Nov 12:15:43 12:19:36 35° 98° (E) 12:23:27 437.525
EO-79 23 Nov 12:19:40 12:23:14 26° 263° (W) 12:26:49 145.935-145.965
NANOSAT C BR1 23 Nov 12:21:02 12:24:42 29° 263° (W) 12:28:23 145.865
AO-85 23 Nov 12:25:38 12:29:56 32° 57° (ENE) 12:34:29 145.980
Gurwin Techsat 1B 23 Nov 12:28:52 12:32:57 23° 68° (ENE) 12:37:02 435.225
POLYITAN 1 23 Nov 12:36:36 12:39:23 17° 265° (W) 12:42:11 437.675
